IRIDIUM 141

Last updated on Fri Sep 11 2026 00:03:06 GMT+0000 (Coordinated Universal Time)

1 43077U 17083H 26253.52920239 .00000138 00000+0 42256-4 0 9994 2 43077 86.3924 286.3137 0002304 93.4563 266.6897 14.34218692456407
UTC large
Height (km)
Speed (km/s)
/
Latitude / Longitude
Inclination (degrees)
Orbital Period (minutes)
Azimuth
Elevation
Range (km)
Doppler Factor

Next 0 passes for location: London (51.5072 / 0.1276)

No passes found over London.
IRIDIUM 141